Time,TemperatureF,DewpointF,PressureIn,WindDirection,WindDirectionDegrees,WindSpeedMPH,WindSpeedGustMPH,Humidity,HourlyPrecipIn,Conditions,Clouds,dailyrainin,SoftwareType,DateUTC
2013-02-19 00:01:00,43.3,40.3,29.84,WNW,286,11.5,11.5,89,0.00,RA,,0.00,WeatherDisplay:10.37,2013-02-19 06:01:00,
2013-02-19 00:06:00,43.2,39.9,29.85,West,259,13.8,13.8,88,0.00,RA,,0.00,WeatherDisplay:10.37,2013-02-19 06:06:00,
2013-02-19 00:11:00,42.9,39.3,29.85,WNW,295,19.6,19.6,87,0.00,CLR,,0.00,WeatherDisplay:10.37,2013-02-19 06:11:00,
2013-02-19 00:16:00,42.8,38.9,29.85,NNW,348,10.4,10.4,86,0.00,CLR,,0.00,WeatherDisplay:10.37,2013-02-19 06:16:00,
2013-02-19 00:21:00,42.7,38.5,29.86,West,271,14.0,14.0,85,0.00,CLR,,0.00,WeatherDisplay:10.37,2013-02-19 06:21:00,
2013-02-19 00:26:00,42.7,38.2,29.86,West,267,15.0,15.0,84,0.00,CLR,,0.00,WeatherDisplay:10.37,2013-02-19 06:26:00,
2013-02-19 00:31:00,42.7,37.9,29.86,WNW,298,11.5,11.5,83,0.00,CLR,,0.00,WeatherDisplay:10.37,2013-02-19 06:31:00,
2013-02-19 00:36:00,42.6,37.8,29.86,West,272,11.5,11.5,83,0.00,CLR,,0.00,WeatherDisplay:10.37,2013-02-19 06:36:00,
2013-02-19 00:41:00,42.5,37.7,29.87,West,259,12.7,12.7,83,0.00,CLR,,0.00,WeatherDisplay:10.37,2013-02-19 06:41:00,
2013-02-19 00:46:00,42.5,37.7,29.87,West,280,8.1,8.1,83,0.00,CLR,,0.00,WeatherDisplay:10.37,2013-02-19 06:46:00,
2013-02-19 00:51:00,42.5,38.0,29.87,NW,321,9.2,9.2,84,0.00,CLR,,0.00,WeatherDisplay:10.37,2013-02-19 06:51:00,
2013-02-19 00:56:00,42.5,37.7,29.88,West,277,11.5,11.5,83,0.00,CLR,,0.00,WeatherDisplay:10.37,2013-02-19 06:56:00,
2013-02-19 01:01:00,42.5,37.7,29.88,West,271,13.8,13.8,83,0.00,CLR,,0.00,WeatherDisplay:10.37,2013-02-19 07:01:00,
2013-02-19 01:06:00,42.4,37.6,29.88,WNW,284,11.5,11.5,83,0.00,CLR,,0.00,WeatherDisplay:10.37,2013-02-19 07:06:00,
2013-02-19 01:11:00,42.3,37.8,29.88,West,266,10.4,10.4,84,0.00,CLR,,0.00,WeatherDisplay:10.37,2013-02-19 07:11:00,
2013-02-19 01:16:00,42.3,37.8,29.89,West,260,9.2,9.2,84,0.00,CLR,,0.00,WeatherDisplay:10.37,2013-02-19 07:16:00,
2013-02-19 01:21:00,42.2,37.7,29.89,West,277,6.9,6.9,84,0.00,CLR,,0.00,WeatherDisplay:10.37,2013-02-19 07:21:00,
2013-02-19 01:26:00,42.1,37.9,29.89,WSW,242,8.1,8.1,85,0.00,CLR,,0.00,WeatherDisplay:10.37,2013-02-19 07:26:00,
2013-02-19 01:31:00,42.1,37.9,29.89,WSW,242,6.9,6.9,85,0.00,CLR,,0.00,WeatherDisplay:10.37,2013-02-19 07:31:00,
2013-02-19 01:36:00,42.0,37.8,29.90,WSW,246,11.5,11.5,85,0.00,CLR,,0.00,WeatherDisplay:10.37,2013-02-19 07:36:00,
2013-02-19 01:41:00,41.8,37.6,29.90,West,265,12.7,12.7,85,0.00,CLR,,0.00,WeatherDisplay:10.37,2013-02-19 07:41:00,
2013-02-19 01:46:00,41.4,36.9,29.91,WSW,252,17.3,17.3,84,0.00,CLR,,0.00,WeatherDisplay:10.37,2013-02-19 07:46:00,
2013-02-19 01:51:00,41.0,36.2,29.91,West,277,13.8,13.8,83,0.00,CLR,,0.00,WeatherDisplay:10.37,2013-02-19 07:51:00,
2013-02-19 01:56:00,40.7,35.9,29.92,WNW,287,12.7,12.7,83,0.00,CLR,,0.00,WeatherDisplay:10.37,2013-02-19 07:56:00,
2013-02-19 02:01:00,40.4,35.6,29.92,West,269,19.6,19.6,83,0.00,CLR,,0.00,WeatherDisplay:10.37,2013-02-19 08:01:00,
2013-02-19 02:06:00,40.0,34.9,29.92,WSW,253,16.1,16.1,82,0.00,CLR,,0.00,WeatherDisplay:10.37,2013-02-19 08:06:00,
2013-02-19 02:11:00,39.7,34.3,29.93,WSW,251,18.4,18.4,81,0.00,CLR,,0.00,WeatherDisplay:10.37,2013-02-19 08:11:00,
2013-02-19 02:16:00,39.5,34.2,29.93,WSW,255,12.7,12.7,81,0.00,CLR,,0.00,WeatherDisplay:10.37,2013-02-19 08:16:00,
2013-02-19 02:21:00,39.3,33.6,29.93,West,261,17.0,17.0,80,0.00,CLR,,0.00,WeatherDisplay:10.37,2013-02-19 08:21:00,
2013-02-19 02:26:00,39.1,33.5,29.93,West,264,17.3,17.3,80,0.00,CLR,,0.00,WeatherDisplay:10.37,2013-02-19 08:26:00,
2013-02-19 02:31:00,38.8,33.2,29.93,West,263,19.6,19.6,80,0.00,CLR,,0.00,WeatherDisplay:10.37,2013-02-19 08:31:00,
2013-02-19 02:36:00,38.5,32.6,29.94,WNW,288,18.4,18.4,79,0.00,CLR,,0.00,WeatherDisplay:10.37,2013-02-19 08:36:00,
2013-02-19 02:42:00,38.2,31.9,29.94,WSW,247,19.6,19.6,78,0.00,CLR,,0.00,WeatherDisplay:10.37,2013-02-19 08:42:00,
2013-02-19 02:47:00,38.0,31.7,29.94,West,272,11.5,11.5,78,0.00,CLR,,0.00,WeatherDisplay:10.37,2013-02-19 08:47:00,
2013-02-19 02:52:00,37.7,31.5,29.94,WSW,248,16.1,16.1,78,0.00,CLR,,0.00,WeatherDisplay:10.37,2013-02-19 08:52:00,
2013-02-19 02:57:00,37.2,31.0,29.94,West,265,11.5,11.5,78,0.00,CLR,,0.00,WeatherDisplay:10.37,2013-02-19 08:57:00,
2013-02-19 03:02:00,36.8,30.6,29.94,West,263,17.3,17.3,78,0.00,CLR,,0.00,WeatherDisplay:10.37,2013-02-19 09:02:00,
2013-02-19 03:07:00,36.4,30.5,29.95,West,270,9.2,9.2,79,0.00,CLR,,0.00,WeatherDisplay:10.37,2013-02-19 09:07:00,
2013-02-19 03:12:00,36.0,29.8,29.95,WNW,296,13.8,13.8,78,0.00,CLR,,0.00,WeatherDisplay:10.37,2013-02-19 09:12:00,
2013-02-19 03:17:00,35.7,29.8,29.95,SW,214,11.5,11.5,79,0.00,CLR,,0.00,WeatherDisplay:10.37,2013-02-19 09:17:00,
2013-02-19 03:22:00,35.5,29.6,29.95,West,270,10.4,10.4,79,0.00,CLR,,0.00,WeatherDisplay:10.37,2013-02-19 09:22:00,
2013-02-19 03:27:00,35.3,29.4,29.95,West,264,16.1,16.1,79,0.00,CLR,,0.00,WeatherDisplay:10.37,2013-02-19 09:27:00,
2013-02-19 03:32:00,35.2,29.3,29.95,West,266,12.7,12.7,79,0.00,CLR,,0.00,WeatherDisplay:10.37,2013-02-19 09:32:00,
2013-02-19 03:37:00,34.9,29.0,29.95,WSW,258,12.7,12.7,79,0.00,CLR,,0.00,WeatherDisplay:10.37,2013-02-19 09:37:00,
2013-02-19 03:42:00,34.7,28.9,29.96,West,272,11.5,11.5,79,0.00,CLR,,0.00,WeatherDisplay:10.37,2013-02-19 09:42:00,
2013-02-19 03:47:00,34.4,28.6,29.96,NW,306,12.7,12.7,79,0.00,CLR,,0.00,WeatherDisplay:10.37,2013-02-19 09:47:00,
2013-02-19 03:52:00,34.2,28.7,29.96,West,279,11.5,11.5,80,0.00,CLR,,0.00,WeatherDisplay:10.37,2013-02-19 09:52:00,
2013-02-19 03:57:00,34.1,28.3,29.96,West,261,13.8,13.8,79,0.00,CLR,,0.00,WeatherDisplay:10.37,2013-02-19 09:57:00,
2013-02-19 04:02:00,34.0,28.2,29.96,WSW,258,15.0,15.0,79,0.00,CLR,,0.00,WeatherDisplay:10.37,2013-02-19 10:02:00,
2013-02-19 04:07:00,33.9,28.1,29.97,West,269,13.0,13.0,79,0.00,CLR,,0.00,WeatherDisplay:10.37,2013-02-19 10:07:00,
2013-02-19 04:12:00,33.8,27.7,29.97,SW,227,11.5,11.5,78,0.00,CLR,,0.00,WeatherDisplay:10.37,2013-02-19 10:12:00,
2013-02-19 04:17:00,33.7,27.6,29.97,WSW,258,13.8,13.8,78,0.00,CLR,,0.00,WeatherDisplay:10.37,2013-02-19 10:17:00,
2013-02-19 04:22:00,33.5,27.7,29.98,WSW,257,15.0,15.0,79,0.00,CLR,,0.00,WeatherDisplay:10.37,2013-02-19 10:22:00,
2013-02-19 04:27:00,33.4,27.3,29.98,West,275,12.0,12.0,78,0.00,CLR,,0.00,WeatherDisplay:10.37,2013-02-19 10:27:00,
2013-02-19 04:32:00,33.3,27.2,29.98,WSW,253,13.8,13.8,78,0.00,CLR,,0.00,WeatherDisplay:10.37,2013-02-19 10:32:00,
2013-02-19 04:37:00,33.3,27.2,29.98,SW,236,10.4,10.4,78,0.00,CLR,,0.00,WeatherDisplay:10.37,2013-02-19 10:37:00,
2013-02-19 04:42:00,33.1,27.0,29.99,WSW,248,10.4,10.4,78,0.00,CLR,,0.00,WeatherDisplay:10.37,2013-02-19 10:42:00,
2013-02-19 04:47:00,33.1,27.0,29.99,WSW,256,12.7,12.7,78,0.00,CLR,,0.00,WeatherDisplay:10.37,2013-02-19 10:47:00,
2013-02-19 04:52:00,33.0,26.9,30.00,WNW,297,12.7,12.7,78,0.00,CLR,,0.00,WeatherDisplay:10.37,2013-02-19 10:52:00,
2013-02-19 04:57:00,33.1,27.0,29.99,WSW,238,9.2,9.2,78,0.00,CLR,,0.00,WeatherDisplay:10.37,2013-02-19 10:57:00,
2013-02-19 05:02:00,32.9,26.8,30.00,West,272,11.5,11.5,78,0.00,CLR,,0.00,WeatherDisplay:10.37,2013-02-19 11:02:00,
2013-02-19 05:07:00,32.7,26.9,30.00,WSW,246,11.0,11.0,79,0.00,CLR,,0.00,WeatherDisplay:10.37,2013-02-19 11:07:00,
2013-02-19 05:12:00,32.7,26.6,30.00,WSW,246,8.1,8.1,78,0.00,CLR,,0.00,WeatherDisplay:10.37,2013-02-19 11:12:00,
2013-02-19 05:17:00,32.6,26.5,30.00,West,262,9.2,9.2,78,0.00,CLR,,0.00,WeatherDisplay:10.37,2013-02-19 11:17:00,
2013-02-19 05:22:00,32.5,26.4,30.00,SW,233,9.2,9.2,78,0.00,CLR,,0.00,WeatherDisplay:10.37,2013-02-19 11:22:00,
2013-02-19 05:27:00,32.5,26.4,30.01,SW,232,8.1,8.1,78,0.00,CLR,,0.00,WeatherDisplay:10.37,2013-02-19 11:27:00,
2013-02-19 07:47:00,32.0,24.0,30.06,West,260,11.5,0.0,72,0.00,CLR,,0.00,WeatherDisplay:10.37,2013-02-19 13:47:00,
2013-02-19 07:52:00,32.3,23.9,30.06,WSW,242,12.7,12.7,71,0.00,CLR,,0.00,WeatherDisplay:10.37,2013-02-19 13:52:00,
2013-02-19 07:57:00,32.5,23.5,30.06,WSW,248,10.4,10.4,69,0.00,CLR,,0.00,WeatherDisplay:10.37,2013-02-19 13:57:00,
2013-02-19 08:02:00,32.9,23.5,30.06,West,279,15.0,15.0,68,0.00,CLR,,0.00,WeatherDisplay:10.37,2013-02-19 14:02:00,
2013-02-19 08:08:00,33.1,23.0,30.06,WSW,256,14.0,14.0,66,0.00,CLR,,0.00,WeatherDisplay:10.37,2013-02-19 14:08:00,
2013-02-19 08:12:00,33.2,23.4,30.06,West,261,15.0,15.0,67,0.00,CLR,,0.00,WeatherDisplay:10.37,2013-02-19 14:12:00,
2013-02-19 08:18:00,33.4,23.3,30.07,SSW,209,11.5,11.5,66,0.00,CLR,,0.00,WeatherDisplay:10.37,2013-02-19 14:18:00,
2013-02-19 08:23:00,33.5,22.6,30.07,West,272,16.1,16.1,64,0.00,CLR,,0.00,WeatherDisplay:10.37,2013-02-19 14:23:00,
2013-02-19 08:28:00,33.8,23.6,30.07,WSW,246,10.4,10.4,66,0.00,CLR,,0.00,WeatherDisplay:10.37,2013-02-19 14:28:00,
2013-02-19 08:33:00,34.0,23.1,30.08,WSW,257,9.2,9.2,64,0.00,CLR,,0.00,WeatherDisplay:10.37,2013-02-19 14:33:00,
2013-02-19 08:38:00,34.1,23.2,30.07,West,265,11.5,11.5,64,0.00,CLR,,0.00,WeatherDisplay:10.37,2013-02-19 14:38:00,
2013-02-19 08:43:00,34.3,23.4,30.08,West,277,15.0,15.0,64,0.00,CLR,,0.00,WeatherDisplay:10.37,2013-02-19 14:43:00,
2013-02-19 08:48:00,34.3,23.0,30.08,WSW,248,13.0,13.0,63,0.00,CLR,,0.00,WeatherDisplay:10.37,2013-02-19 14:48:00,
2013-02-19 08:53:00,34.4,22.7,30.08,West,259,12.7,12.7,62,0.00,CLR,,0.00,WeatherDisplay:10.37,2013-02-19 14:53:00,
2013-02-19 08:58:00,34.5,22.4,30.08,WSW,246,13.0,13.0,61,0.00,CLR,,0.00,WeatherDisplay:10.37,2013-02-19 14:58:00,
2013-02-19 09:03:00,34.6,22.5,30.08,SW,225,15.0,15.0,61,0.00,CLR,,0.00,WeatherDisplay:10.37,2013-02-19 15:03:00,
2013-02-19 09:08:00,35.0,23.3,30.08,WNW,290,13.0,13.0,62,0.00,CLR,,0.00,WeatherDisplay:10.37,2013-02-19 15:08:00,
2013-02-19 09:13:00,35.1,23.0,30.08,West,269,15.0,15.0,61,0.00,CLR,,0.00,WeatherDisplay:10.37,2013-02-19 15:13:00,
2013-02-19 09:18:00,35.2,23.1,30.09,WSW,258,13.8,13.8,61,0.00,CLR,,0.00,WeatherDisplay:10.37,2013-02-19 15:18:00,
2013-02-19 09:23:00,35.5,23.4,30.09,West,268,18.4,18.4,61,0.00,CLR,,0.00,WeatherDisplay:10.37,2013-02-19 15:23:00,
2013-02-19 09:28:00,35.7,23.2,30.09,WSW,252,15.0,15.0,60,0.00,CLR,,0.00,WeatherDisplay:10.37,2013-02-19 15:28:00,
2013-02-19 09:33:00,36.1,24.3,30.09,West,268,15.0,15.0,62,0.00,CLR,,0.00,WeatherDisplay:10.37,2013-02-19 15:33:00,
2013-02-19 09:38:00,36.2,23.6,30.09,West,261,11.5,11.5,60,0.00,CLR,,0.00,WeatherDisplay:10.37,2013-02-19 15:38:00,
2013-02-19 09:43:00,36.0,22.6,30.09,SSW,201,19.6,19.6,58,0.00,CLR,,0.00,WeatherDisplay:10.37,2013-02-19 15:43:00,
2013-02-19 09:48:00,35.8,22.5,30.10,WSW,239,16.1,16.1,58,0.00,CLR,,0.00,WeatherDisplay:10.37,2013-02-19 15:48:00,
2013-02-19 09:53:00,35.9,23.0,30.10,West,281,16.1,16.1,59,0.00,CLR,,0.00,WeatherDisplay:10.37,2013-02-19 15:53:00,
2013-02-19 09:58:00,36.2,23.2,30.10,WNW,297,13.8,13.8,59,0.00,CLR,,0.00,WeatherDisplay:10.37,2013-02-19 15:58:00,
2013-02-19 10:03:00,36.4,23.0,30.10,WSW,243,21.9,21.9,58,0.00,CLR,,0.00,WeatherDisplay:10.37,2013-02-19 16:03:00,
2013-02-19 10:08:00,36.4,22.6,30.11,West,281,17.3,17.3,57,0.00,CLR,,0.00,WeatherDisplay:10.37,2013-02-19 16:08:00,
2013-02-19 10:13:00,36.5,22.7,30.11,WSW,246,16.1,16.1,57,0.00,CLR,,0.00,WeatherDisplay:10.37,2013-02-19 16:13:00,
2013-02-19 10:18:00,36.6,22.4,30.11,West,260,11.5,11.5,56,0.00,CLR,,0.00,WeatherDisplay:10.37,2013-02-19 16:18:00,
2013-02-19 10:23:00,36.9,23.1,30.11,WSW,251,15.0,15.0,57,0.00,CLR,,0.00,WeatherDisplay:10.37,2013-02-19 16:23:00,
2013-02-19 10:28:00,37.3,23.4,30.12,West,261,13.8,13.8,57,0.00,CLR,,0.00,WeatherDisplay:10.37,2013-02-19 16:28:00,
2013-02-19 10:33:00,37.3,23.4,30.12,WSW,238,12.0,12.0,57,0.00,CLR,,0.00,WeatherDisplay:10.37,2013-02-19 16:33:00,
2013-02-19 10:38:00,37.5,23.6,30.12,West,273,11.5,11.5,57,0.00,CLR,,0.00,WeatherDisplay:10.37,2013-02-19 16:38:00,
2013-02-19 10:43:00,37.7,23.0,30.12,SW,222,18.4,18.4,55,0.00,CLR,,0.00,WeatherDisplay:10.37,2013-02-19 16:43:00,
2013-02-19 10:48:00,37.7,23.0,30.12,SW,217,12.7,12.7,55,0.00,CLR,,0.00,WeatherDisplay:10.37,2013-02-19 16:48:00,
2013-02-19 10:53:00,38.0,23.7,30.12,WSW,252,15.0,15.0,56,0.00,CLR,,0.00,WeatherDisplay:10.37,2013-02-19 16:53:00,
2013-02-19 10:58:00,38.6,24.2,30.12,WSW,258,15.0,15.0,56,0.00,CLR,,0.00,WeatherDisplay:10.37,2013-02-19 16:58:00,
2013-02-19 11:03:00,38.7,22.6,30.12,WSW,239,19.6,19.6,52,0.00,CLR,,0.00,WeatherDisplay:10.37,2013-02-19 17:03:00,
2013-02-19 11:08:00,38.8,23.1,30.12,West,279,16.1,16.1,53,0.00,CLR,,0.00,WeatherDisplay:10.37,2013-02-19 17:08:00,
2013-02-19 11:13:00,39.1,23.4,30.12,West,277,12.7,12.7,53,0.00,CLR,,0.00,WeatherDisplay:10.37,2013-02-19 17:13:00,
2013-02-19 11:18:00,39.5,23.8,30.12,WSW,249,12.7,12.7,53,0.00,CLR,,0.00,WeatherDisplay:10.37,2013-02-19 17:18:00,
2013-02-19 11:23:00,39.6,24.3,30.12,WSW,238,10.4,10.4,54,0.00,CLR,,0.00,WeatherDisplay:10.37,2013-02-19 17:23:00,
2013-02-19 11:28:00,39.7,24.0,30.12,WSW,244,17.3,17.3,53,0.00,CLR,,0.00,WeatherDisplay:10.37,2013-02-19 17:28:00,
2013-02-19 11:33:00,39.5,24.2,30.12,SW,236,15.0,15.0,54,0.00,CLR,,0.00,WeatherDisplay:10.37,2013-02-19 17:33:00,
2013-02-19 11:38:00,39.4,22.8,30.12,SW,236,15.0,15.0,51,0.00,CLR,,0.00,WeatherDisplay:10.37,2013-02-19 17:38:00,
2013-02-19 11:43:00,39.7,23.5,30.13,SW,228,21.9,21.9,52,0.00,CLR,,0.00,WeatherDisplay:10.37,2013-02-19 17:43:00,
2013-02-19 11:48:00,39.9,25.0,30.12,SW,220,13.8,13.8,55,0.00,CLR,,0.00,WeatherDisplay:10.37,2013-02-19 17:48:00,
2013-02-19 11:53:00,40.8,25.4,30.13,SW,226,15.0,15.0,54,0.00,CLR,,0.00,WeatherDisplay:10.37,2013-02-19 17:53:00,
2013-02-19 11:58:00,40.8,25.0,30.12,West,269,16.1,16.1,53,0.00,CLR,,0.00,WeatherDisplay:10.37,2013-02-19 17:58:00,
2013-02-19 12:03:00,40.8,24.1,30.12,NW,315,16.1,16.1,51,0.00,CLR,,0.00,WeatherDisplay:10.37,2013-02-19 18:03:00,
2013-02-19 12:08:00,41.1,25.7,30.12,WSW,254,12.0,12.0,54,0.00,CLR,,0.00,WeatherDisplay:10.37,2013-02-19 18:08:00,
2013-02-19 12:13:00,40.8,23.1,30.12,West,265,19.6,19.6,49,0.00,CLR,,0.00,WeatherDisplay:10.37,2013-02-19 18:13:00,
2013-02-19 12:18:00,41.1,23.9,30.12,WSW,239,18.0,18.0,50,0.00,CLR,,0.00,WeatherDisplay:10.37,2013-02-19 18:18:00,
2013-02-19 12:23:00,40.9,23.7,30.12,WNW,292,14.0,14.0,50,0.00,CLR,,0.00,WeatherDisplay:10.37,2013-02-19 18:23:00,
2013-02-19 12:28:00,41.3,23.6,30.12,West,275,12.0,12.0,49,0.00,CLR,,0.00,WeatherDisplay:10.37,2013-02-19 18:28:00,
2013-02-19 12:33:00,41.6,22.8,30.12,West,261,12.7,12.7,47,0.00,CLR,,0.00,WeatherDisplay:10.37,2013-02-19 18:33:00,
2013-02-19 12:38:00,41.9,23.1,30.11,WSW,245,16.1,16.1,47,0.00,CLR,,0.00,WeatherDisplay:10.37,2013-02-19 18:38:00,
2013-02-19 12:43:00,41.8,23.0,30.11,WNW,282,15.0,15.0,47,0.00,CLR,,0.00,WeatherDisplay:10.37,2013-02-19 18:43:00,
2013-02-19 12:48:00,41.8,24.5,30.11,WSW,249,11.5,11.5,50,0.00,CLR,,0.00,WeatherDisplay:10.37,2013-02-19 18:48:00,
2013-02-19 12:53:00,42.2,22.4,30.12,West,277,12.7,12.7,45,0.00,CLR,,0.00,WeatherDisplay:10.37,2013-02-19 18:53:00,
2013-02-19 12:58:00,42.9,25.0,30.11,West,265,17.0,17.0,49,0.00,CLR,,0.00,WeatherDisplay:10.37,2013-02-19 18:58:00,
2013-02-19 13:03:00,42.5,22.6,30.11,WSW,250,18.4,18.4,45,0.00,CLR,,0.00,WeatherDisplay:10.37,2013-02-19 19:03:00,
2013-02-19 13:08:00,42.5,23.2,30.11,SW,228,11.5,11.5,46,0.00,CLR,,0.00,WeatherDisplay:10.37,2013-02-19 19:08:00,
2013-02-19 13:13:00,42.4,22.0,30.11,SW,223,17.3,17.3,44,0.00,CLR,,0.00,WeatherDisplay:10.37,2013-02-19 19:13:00,
2013-02-19 13:18:00,42.6,24.3,30.11,SW,233,11.5,11.5,48,0.00,CLR,,0.00,WeatherDisplay:10.37,2013-02-19 19:18:00,
2013-02-19 13:23:00,43.2,23.3,30.11,SW,230,18.4,18.4,45,0.00,CLR,,0.00,WeatherDisplay:10.37,2013-02-19 19:23:00,
2013-02-19 13:28:00,43.2,22.7,30.12,WSW,254,13.8,13.8,44,0.00,CLR,,0.00,WeatherDisplay:10.37,2013-02-19 19:28:00,
2013-02-19 13:33:00,43.1,22.1,30.11,SW,236,15.0,15.0,43,0.00,CLR,,0.00,WeatherDisplay:10.37,2013-02-19 19:33:00,
2013-02-19 13:38:00,43.7,23.7,30.11,West,263,14.0,14.0,45,0.00,CLR,,0.00,WeatherDisplay:10.37,2013-02-19 19:38:00,
2013-02-19 13:43:00,43.7,22.6,30.12,WSW,240,16.1,16.1,43,0.00,CLR,,0.00,WeatherDisplay:10.37,2013-02-19 19:43:00,
2013-02-19 13:48:00,43.7,22.6,30.11,West,275,17.3,17.3,43,0.00,CLR,,0.00,WeatherDisplay:10.37,2013-02-19 19:48:00,
2013-02-19 13:54:00,43.5,22.5,30.12,WSW,243,19.6,19.6,43,0.00,CLR,,0.00,WeatherDisplay:10.37,2013-02-19 19:54:00,
2013-02-19 13:59:00,43.7,22.6,30.12,WNW,297,11.5,11.5,43,0.00,CLR,,0.00,WeatherDisplay:10.37,2013-02-19 19:59:00,
2013-02-19 14:04:00,44.4,23.3,30.12,SW,234,18.4,18.4,43,0.00,CLR,,0.00,WeatherDisplay:10.37,2013-02-19 20:04:00,
2013-02-19 14:09:00,44.5,22.8,30.12,WSW,252,15.0,15.0,42,0.00,CLR,,0.00,WeatherDisplay:10.37,2013-02-19 20:09:00,
2013-02-19 14:14:00,44.3,22.1,30.11,SW,231,16.1,16.1,41,0.00,CLR,,0.00,WeatherDisplay:10.37,2013-02-19 20:14:00,
2013-02-19 14:19:00,44.3,21.5,30.11,West,268,15.0,15.0,40,0.00,CLR,,0.00,WeatherDisplay:10.37,2013-02-19 20:19:00,
2013-02-19 14:24:00,44.4,21.6,30.12,West,266,16.1,16.1,40,0.00,CLR,,0.00,WeatherDisplay:10.37,2013-02-19 20:24:00,
2013-02-19 14:29:00,44.5,21.0,30.12,WSW,255,19.6,19.6,39,0.00,CLR,,0.00,WeatherDisplay:10.37,2013-02-19 20:29:00,
2013-02-19 14:34:00,45.0,20.9,30.12,SW,234,16.1,16.1,38,0.00,CLR,,0.00,WeatherDisplay:10.37,2013-02-19 20:34:00,
2013-02-19 14:39:00,45.1,20.3,30.12,WNW,282,16.1,16.1,37,0.00,CLR,,0.00,WeatherDisplay:10.37,2013-02-19 20:39:00,
2013-02-19 14:44:00,45.4,21.2,30.12,SW,233,13.8,13.8,38,0.00,CLR,,0.00,WeatherDisplay:10.37,2013-02-19 20:44:00,
2013-02-19 14:49:00,45.5,20.7,30.12,WNW,282,21.9,21.9,37,0.00,CLR,,0.00,WeatherDisplay:10.37,2013-02-19 20:49:00,
2013-02-19 14:54:00,45.5,20.7,30.12,SW,219,17.3,17.3,37,0.00,CLR,,0.00,WeatherDisplay:10.37,2013-02-19 20:54:00,
2013-02-19 14:59:00,45.6,20.8,30.12,WSW,247,23.0,23.0,37,0.00,CLR,,0.00,WeatherDisplay:10.37,2013-02-19 20:59:00,
2013-02-19 15:04:00,46.0,23.0,30.13,WSW,250,13.8,13.8,40,0.00,CLR,,0.00,WeatherDisplay:10.37,2013-02-19 21:04:00,
2013-02-19 15:09:00,46.3,22.0,30.13,WSW,240,13.8,13.8,38,0.00,CLR,,0.00,WeatherDisplay:10.37,2013-02-19 21:09:00,
2013-02-19 15:14:00,46.0,20.5,30.13,West,269,16.1,16.1,36,0.00,CLR,,0.00,WeatherDisplay:10.37,2013-02-19 21:14:00,
2013-02-19 15:19:00,45.8,20.3,30.13,WSW,248,17.3,17.3,36,0.00,CLR,,0.00,WeatherDisplay:10.37,2013-02-19 21:19:00,
2013-02-19 15:24:00,45.5,19.4,30.13,West,266,11.5,11.5,35,0.00,CLR,,0.00,WeatherDisplay:10.37,2013-02-19 21:24:00,
2013-02-19 15:29:00,45.8,20.3,30.13,West,270,17.3,17.3,36,0.00,CLR,,0.00,WeatherDisplay:10.37,2013-02-19 21:29:00,
2013-02-19 15:34:00,46.4,21.5,30.13,WSW,250,12.7,12.7,37,0.00,CLR,,0.00,WeatherDisplay:10.37,2013-02-19 21:34:00,
2013-02-19 15:39:00,46.6,21.0,30.13,WSW,242,13.8,13.8,36,0.00,CLR,,0.00,WeatherDisplay:10.37,2013-02-19 21:39:00,
2013-02-19 15:44:00,46.5,19.6,30.13,WSW,239,12.7,12.7,34,0.00,CLR,,0.00,WeatherDisplay:10.37,2013-02-19 21:44:00,
2013-02-19 15:49:00,46.4,20.2,30.13,WSW,239,11.5,11.5,35,0.00,CLR,,0.00,WeatherDisplay:10.37,2013-02-19 21:49:00,
2013-02-19 15:54:00,46.4,19.5,30.13,SW,216,16.1,16.1,34,0.00,CLR,,0.00,WeatherDisplay:10.37,2013-02-19 21:54:00,
2013-02-19 15:59:00,46.3,20.1,30.14,WSW,257,13.8,13.8,35,0.00,CLR,,0.00,WeatherDisplay:10.37,2013-02-19 21:59:00,
2013-02-19 16:04:00,46.3,20.1,30.14,West,259,12.7,12.7,35,0.00,CLR,,0.00,WeatherDisplay:10.37,2013-02-19 22:04:00,
2013-02-19 16:09:00,46.1,18.6,30.14,SW,220,19.6,19.6,33,0.00,CLR,,0.00,WeatherDisplay:10.37,2013-02-19 22:09:00,
2013-02-19 16:14:00,45.7,18.2,30.14,WSW,252,16.1,16.1,33,0.00,CLR,,0.00,WeatherDisplay:10.37,2013-02-19 22:14:00,
2013-02-19 16:19:00,45.8,17.6,30.14,West,264,11.5,11.5,32,0.00,CLR,,0.00,WeatherDisplay:10.37,2013-02-19 22:19:00,
2013-02-19 16:24:00,45.8,16.8,30.13,SW,236,16.1,16.1,31,0.00,CLR,,0.00,WeatherDisplay:10.37,2013-02-19 22:24:00,
2013-02-19 16:29:00,45.6,18.1,30.14,West,266,11.5,11.5,33,0.00,CLR,,0.00,WeatherDisplay:10.37,2013-02-19 22:29:00,
2013-02-19 16:34:00,45.7,16.7,30.14,West,271,18.4,18.4,31,0.00,CLR,,0.00,WeatherDisplay:10.37,2013-02-19 22:34:00,
2013-02-19 16:39:00,45.6,16.7,30.14,West,271,11.5,11.5,31,0.00,CLR,,0.00,WeatherDisplay:10.37,2013-02-19 22:39:00,
2013-02-19 16:44:00,45.3,14.1,30.14,WNW,282,11.5,11.5,28,0.00,CLR,,0.00,WeatherDisplay:10.37,2013-02-19 22:44:00,
2013-02-19 16:49:00,45.2,15.6,30.14,WSW,254,16.1,16.1,30,0.00,CLR,,0.00,WeatherDisplay:10.37,2013-02-19 22:49:00,
2013-02-19 16:54:00,45.0,14.6,30.14,WSW,241,19.6,19.6,29,0.00,CLR,,0.00,WeatherDisplay:10.37,2013-02-19 22:54:00,
2013-02-19 16:59:00,44.7,13.5,30.14,WSW,243,17.3,17.3,28,0.00,CLR,,0.00,WeatherDisplay:10.37,2013-02-19 22:59:00,
2013-02-19 17:04:00,44.6,14.3,30.14,WSW,254,11.5,11.5,29,0.00,CLR,,0.00,WeatherDisplay:10.37,2013-02-19 23:04:00,
2013-02-19 17:09:00,44.6,15.8,30.14,West,277,8.1,8.1,31,0.00,CLR,,0.00,WeatherDisplay:10.37,2013-02-19 23:09:00,
2013-02-19 17:14:00,44.2,13.1,30.15,West,275,12.0,12.0,28,0.00,CLR,,0.00,WeatherDisplay:10.37,2013-02-19 23:14:00,
2013-02-19 17:19:00,43.7,13.5,30.15,WSW,251,9.2,9.2,29,0.00,CLR,,0.00,WeatherDisplay:10.37,2013-02-19 23:19:00,
2013-02-19 17:24:00,43.4,13.2,30.15,West,259,7.0,7.0,29,0.00,CLR,,0.00,WeatherDisplay:10.37,2013-02-19 23:24:00,
2013-02-19 17:29:00,43.0,11.2,30.15,West,280,9.2,9.2,27,0.00,CLR,,0.00,WeatherDisplay:10.37,2013-02-19 23:29:00,
2013-02-19 17:34:00,42.5,12.4,30.15,NNW,340,5.0,5.0,29,0.00,CLR,,0.00,WeatherDisplay:10.37,2013-02-19 23:34:00,
2013-02-19 17:39:00,41.8,12.6,30.15,WNW,296,3.5,3.5,30,0.00,CLR,,0.00,WeatherDisplay:10.37,2013-02-19 23:39:00,
2013-02-19 17:44:00,41.4,12.2,30.15,West,279,6.9,6.9,30,0.00,CLR,,0.00,WeatherDisplay:10.37,2013-02-19 23:44:00,
2013-02-19 17:49:00,41.1,12.0,30.15,NW,310,4.0,4.0,30,0.00,CLR,,0.00,WeatherDisplay:10.37,2013-02-19 23:49:00,
2013-02-19 17:54:00,40.9,12.5,30.15,NW,322,5.8,5.8,31,0.00,CLR,,0.00,WeatherDisplay:10.37,2013-02-19 23:54:00,
2013-02-19 17:59:00,40.7,13.1,30.15,WNW,296,3.5,3.5,32,0.00,CLR,,0.00,WeatherDisplay:10.37,2013-02-19 23:59:00,
2013-02-19 18:04:00,40.4,12.1,30.15,WNW,297,5.0,5.0,31,0.00,CLR,,0.00,WeatherDisplay:10.37,2013-02-20 00:04:00,
2013-02-19 18:09:00,40.2,11.9,30.15,WNW,303,3.5,3.5,31,0.00,CLR,,0.00,WeatherDisplay:10.37,2013-02-20 00:09:00,
2013-02-19 18:14:00,40.0,12.5,30.15,West,264,5.8,5.8,32,0.00,CLR,,0.00,WeatherDisplay:10.37,2013-02-20 00:14:00,
2013-02-19 18:19:00,39.7,12.2,30.16,WNW,298,1.0,1.0,32,0.00,CLR,,0.00,WeatherDisplay:10.37,2013-02-20 00:19:00,
2013-02-19 18:24:00,39.6,12.1,30.16,WNW,298,1.1,0.0,32,0.00,CLR,,0.00,WeatherDisplay:10.37,2013-02-20 00:24:00,
2013-02-19 18:30:00,39.4,11.9,30.16,WNW,298,0.0,0.1,32,0.00,CLR,,0.00,WeatherDisplay:10.37,2013-02-20 00:30:00,
2013-02-19 18:35:00,39.3,11.9,30.16,WNW,294,2.3,2.3,32,0.00,CLR,,0.00,WeatherDisplay:10.37,2013-02-20 00:35:00,
2013-02-19 18:40:00,39.1,11.7,30.16,NW,318,1.1,1.1,32,0.00,CLR,,0.00,WeatherDisplay:10.37,2013-02-20 00:40:00,
2013-02-19 18:45:00,38.9,12.2,30.16,WNW,302,1.1,1.3,33,0.00,CLR,,0.00,WeatherDisplay:10.37,2013-02-20 00:45:00,
2013-02-19 18:50:00,38.7,12.7,30.16,WNW,290,3.5,3.5,34,0.00,CLR,,0.00,WeatherDisplay:10.37,2013-02-20 00:50:00,
2013-02-19 18:55:00,38.4,13.1,30.16,West,271,4.0,4.0,35,0.00,CLR,,0.00,WeatherDisplay:10.37,2013-02-20 00:55:00,
2013-02-19 19:00:00,37.9,12.6,30.16,West,278,3.5,3.5,35,0.00,CLR,,0.00,WeatherDisplay:10.37,2013-02-20 01:00:00,
2013-02-19 19:05:00,37.8,11.9,30.16,WNW,284,3.5,3.5,34,0.00,CLR,,0.00,WeatherDisplay:10.37,2013-02-20 01:05:00,
2013-02-19 19:10:00,37.8,12.6,30.16,West,281,3.5,3.5,35,0.00,CLR,,0.00,WeatherDisplay:10.37,2013-02-20 01:10:00,
2013-02-19 19:15:00,37.8,11.9,30.17,WNW,299,2.3,2.3,34,0.00,CLR,,0.00,WeatherDisplay:10.37,2013-02-20 01:15:00,
2013-02-19 19:20:00,37.9,12.0,30.16,WNW,296,2.3,2.3,34,0.00,CLR,,0.00,WeatherDisplay:10.37,2013-02-20 01:20:00,
2013-02-19 19:25:00,37.9,12.0,30.17,WNW,296,2.3,2.3,34,0.00,CLR,,0.00,WeatherDisplay:10.37,2013-02-20 01:25:00,
2013-02-19 19:30:00,37.7,12.5,30.17,West,269,3.0,3.0,35,0.00,CLR,,0.00,WeatherDisplay:10.37,2013-02-20 01:30:00,
2013-02-19 19:35:00,37.1,12.6,30.17,West,265,3.5,3.5,36,0.00,CLR,,0.00,WeatherDisplay:10.37,2013-02-20 01:35:00,
2013-02-19 19:40:00,36.8,12.3,30.17,WNW,286,3.5,3.5,36,0.00,CLR,,0.00,WeatherDisplay:10.37,2013-02-20 01:40:00,
2013-02-19 19:45:00,36.7,12.2,30.17,West,271,5.8,5.8,36,0.00,CLR,,0.00,WeatherDisplay:10.37,2013-02-20 01:45:00,
2013-02-19 19:50:00,36.6,12.1,30.18,NW,306,6.9,6.9,36,0.00,CLR,,0.00,WeatherDisplay:10.37,2013-02-20 01:50:00,
2013-02-19 19:55:00,36.6,12.7,30.18,WNW,297,5.8,5.8,37,0.00,CLR,,0.00,WeatherDisplay:10.37,2013-02-20 01:55:00,
2013-02-19 20:00:00,36.5,12.0,30.18,West,275,4.6,4.6,36,0.00,CLR,,0.00,WeatherDisplay:10.37,2013-02-20 02:00:00,
2013-02-19 20:05:00,36.4,11.9,30.18,NW,306,5.8,5.8,36,0.00,CLR,,0.00,WeatherDisplay:10.37,2013-02-20 02:05:00,
2013-02-19 20:10:00,36.4,11.9,30.18,NW,310,5.0,5.0,36,0.00,CLR,,0.00,WeatherDisplay:10.37,2013-02-20 02:10:00,
2013-02-19 20:15:00,36.4,11.3,30.18,WNW,300,4.6,4.6,35,0.00,CLR,,0.00,WeatherDisplay:10.37,2013-02-20 02:15:00,
2013-02-19 20:20:00,36.5,12.0,30.19,WNW,300,9.2,9.2,36,0.00,CLR,,0.00,WeatherDisplay:10.37,2013-02-20 02:20:00,
2013-02-19 20:25:00,36.3,11.9,30.19,WNW,303,3.5,3.5,36,0.00,CLR,,0.00,WeatherDisplay:10.37,2013-02-20 02:25:00,
2013-02-19 20:30:00,36.1,11.7,30.20,NW,319,3.5,3.5,36,0.00,CLR,,0.00,WeatherDisplay:10.37,2013-02-20 02:30:00,
2013-02-19 20:35:00,36.0,11.6,30.20,NW,325,2.3,2.3,36,0.00,CLR,,0.00,WeatherDisplay:10.37,2013-02-20 02:35:00,
2013-02-19 20:40:00,35.9,12.1,30.20,NNW,330,3.0,3.0,37,0.00,CLR,,0.00,WeatherDisplay:10.37,2013-02-20 02:40:00,
2013-02-19 20:45:00,35.8,12.6,30.21,NNW,334,2.0,2.0,38,0.00,CLR,,0.00,WeatherDisplay:10.37,2013-02-20 02:45:00,
2013-02-19 20:50:00,35.6,13.6,30.21,NNW,333,3.5,3.5,40,0.00,CLR,,0.00,WeatherDisplay:10.37,2013-02-20 02:50:00,
2013-02-19 20:55:00,35.3,13.9,30.22,NW,304,2.3,2.3,41,0.00,CLR,,0.00,WeatherDisplay:10.37,2013-02-20 02:55:00,
2013-02-19 21:00:00,35.0,14.2,30.22,NNW,332,2.3,2.3,42,0.00,CLR,,0.00,WeatherDisplay:10.37,2013-02-20 03:00:00,
2013-02-19 21:05:00,34.6,13.8,30.22,NW,326,3.5,3.5,42,0.00,CLR,,0.00,WeatherDisplay:10.37,2013-02-20 03:05:00,
2013-02-19 21:10:00,34.5,13.7,30.23,NW,324,3.5,3.5,42,0.00,CLR,,0.00,WeatherDisplay:10.37,2013-02-20 03:10:00,
2013-02-19 21:15:00,34.4,13.6,30.23,WNW,299,6.9,6.9,42,0.00,CLR,,0.00,WeatherDisplay:10.37,2013-02-20 03:15:00,
2013-02-19 21:20:00,34.3,13.6,30.23,NW,315,9.2,9.2,42,0.00,CLR,,0.00,WeatherDisplay:10.37,2013-02-20 03:20:00,
2013-02-19 21:25:00,34.2,14.0,30.23,NW,315,5.8,5.8,43,0.00,CLR,,0.00,WeatherDisplay:10.37,2013-02-20 03:25:00,
2013-02-19 21:30:00,34.0,13.8,30.23,NNW,329,2.3,2.3,43,0.00,CLR,,0.00,WeatherDisplay:10.37,2013-02-20 03:30:00,
2013-02-19 21:35:00,33.8,14.2,30.24,NW,311,6.9,6.9,44,0.00,CLR,,0.00,WeatherDisplay:10.37,2013-02-20 03:35:00,
2013-02-19 21:40:00,33.6,14.0,30.24,NW,306,7.0,7.0,44,0.00,CLR,,0.00,WeatherDisplay:10.37,2013-02-20 03:40:00,
2013-02-19 21:45:00,33.4,13.8,30.24,NW,325,3.5,3.5,44,0.00,CLR,,0.00,WeatherDisplay:10.37,2013-02-20 03:45:00,
2013-02-19 21:50:00,33.3,14.2,30.24,NW,319,8.1,8.1,45,0.00,CLR,,0.00,WeatherDisplay:10.37,2013-02-20 03:50:00,
2013-02-19 21:55:00,33.2,14.1,30.24,WNW,298,8.0,8.0,45,0.00,CLR,,0.00,WeatherDisplay:10.37,2013-02-20 03:55:00,
2013-02-19 22:00:00,33.0,13.9,30.24,NNW,329,4.6,4.6,45,0.00,CLR,,0.00,WeatherDisplay:10.37,2013-02-20 04:00:00,
2013-02-19 22:05:00,32.8,14.3,30.23,NNW,331,3.5,3.5,46,0.00,CLR,,0.00,WeatherDisplay:10.37,2013-02-20 04:05:00,
2013-02-19 22:10:00,32.8,14.3,30.23,NW,313,5.8,5.8,46,0.00,CLR,,0.00,WeatherDisplay:10.37,2013-02-20 04:10:00,
2013-02-19 22:15:00,32.5,14.0,30.23,NNW,340,2.3,2.3,46,0.00,CLR,,0.00,WeatherDisplay:10.37,2013-02-20 04:15:00,
2013-02-19 22:20:00,32.3,13.8,30.23,NW,326,2.3,2.3,46,0.00,CLR,,0.00,WeatherDisplay:10.37,2013-02-20 04:20:00,
2013-02-19 22:25:00,32.1,13.6,30.23,NW,315,3.5,3.5,46,0.00,CLR,,0.00,WeatherDisplay:10.37,2013-02-20 04:25:00,
2013-02-19 22:30:00,32.0,13.5,30.22,North,355,2.3,2.3,46,0.00,CLR,,0.00,WeatherDisplay:10.37,2013-02-20 04:30:00,
2013-02-19 22:35:00,31.8,13.3,30.22,NW,326,3.5,3.5,46,0.00,CLR,,0.00,WeatherDisplay:10.37,2013-02-20 04:35:00,
2013-02-19 22:40:00,31.6,13.7,30.22,NNW,335,4.6,4.6,47,0.00,CLR,,0.00,WeatherDisplay:10.37,2013-02-20 04:40:00,
2013-02-19 22:45:00,31.5,13.6,30.22,North,355,6.9,6.9,47,0.00,CLR,,0.00,WeatherDisplay:10.37,2013-02-20 04:45:00,
2013-02-19 22:50:00,31.4,13.9,30.23,NW,320,2.3,2.3,48,0.00,CLR,,0.00,WeatherDisplay:10.37,2013-02-20 04:50:00,
2013-02-19 22:55:00,31.2,13.8,30.23,NNW,332,6.9,6.9,48,0.00,CLR,,0.00,WeatherDisplay:10.37,2013-02-20 04:55:00,
2013-02-19 23:00:00,31.1,13.7,30.23,NNW,335,7.0,7.0,48,0.00,CLR,,0.00,WeatherDisplay:10.37,2013-02-20 05:00:00,
2013-02-19 23:05:00,31.1,13.7,30.24,NW,319,2.3,2.3,48,0.00,CLR,,0.00,WeatherDisplay:10.37,2013-02-20 05:05:00,
2013-02-19 23:10:00,30.9,13.5,30.24,NW,310,6.9,6.9,48,0.00,CLR,,0.00,WeatherDisplay:10.37,2013-02-20 05:10:00,
2013-02-19 23:15:00,30.8,13.9,30.24,NW,321,6.9,6.9,49,0.00,CLR,,0.00,WeatherDisplay:10.37,2013-02-20 05:15:00,
2013-02-19 23:21:00,30.7,13.8,30.25,NNW,338,4.0,4.0,49,0.00,CLR,,0.00,WeatherDisplay:10.37,2013-02-20 05:21:00,
2013-02-19 23:26:00,30.6,13.7,30.25,NNW,344,6.9,6.9,49,0.00,CLR,,0.00,WeatherDisplay:10.37,2013-02-20 05:26:00,
2013-02-19 23:31:00,30.5,13.6,30.25,North,5,6.9,6.9,49,0.00,CLR,,0.00,WeatherDisplay:10.37,2013-02-20 05:31:00,
2013-02-19 23:36:00,30.5,13.6,30.25,NNW,333,8.1,8.1,49,0.00,CLR,,0.00,WeatherDisplay:10.37,2013-02-20 05:36:00,
2013-02-19 23:41:00,30.4,14.0,30.25,NNW,332,3.5,3.5,50,0.00,CLR,,0.00,WeatherDisplay:10.37,2013-02-20 05:41:00,
2013-02-19 23:46:00,30.3,13.9,30.26,NNW,327,5.8,5.8,50,0.00,CLR,,0.00,WeatherDisplay:10.37,2013-02-20 05:46:00,
2013-02-19 23:51:00,30.2,13.8,30.26,NW,325,3.5,3.5,50,0.00,CLR,,0.00,WeatherDisplay:10.37,2013-02-20 05:51:00,
2013-02-19 23:56:00,30.1,13.7,30.26,NW,306,2.3,2.3,50,0.00,CLR,,0.00,WeatherDisplay:10.37,2013-02-20 05:56:00,